sat.trackr.live / text

‹ back to catalog

TROOP-F3

NORAD 68429 · 2026-067P

PAYLOAD ACTIVE UNKNOWN

§ Identity

Operator
Country
US
Launch date
2026-03-30
Launch site
AFWTR
Launch vehicle
Mass (kg)
RCS (m²)

External: N2YO · Heavens-Above · Gunter

§ Orbital elements

Epoch: 2026-09-20T03:18:41.383008Z

Period
94.64 min
Inclination
97.4603°
Eccentricity
0.0004541
Mean motion
15.21525271 rev/d
Perigee alt
498.1 km
Apogee alt
504.4 km
Semi-major
6,879.4 km
B*
4.1057e-4
RAAN
220.5944°
Arg perigee
74.9151°
Mean anomaly
285.2587°
Rev number
2,637

§ Raw data

TROOP-F31 68429U 26067P   26263.13797897  .00009182  00000+0  41057-3 0  99992 68429  97.4603 220.5944 0004541  74.9151 285.2587 15.21525271 26373

JSON: /api/v1/satellites/68429 · /tle

For live sub-satellite position, see the globe view (requires WebGL).

§ Visibility from observer

Set your observer location to see the next 7 days of passes ≥ 10°. The values pass through the URL so the page stays shareable.

No JS? Fill the form by hand. The geolocation button needs JavaScript.